This is the latest recevied weather packets stored in our database for station/object K1BWE-1. If no packets are shown the sender has not sent any weather packets the latest 10 day(s).
| Time | Temp. | Humidity | Pressure | Rain* | Wind** | Luminosity | Snow |
|---|---|---|---|---|---|---|---|
| 1777934417 | 23.89° C | 24% | 1015 hPa | 0 mm | - | 104 W/m² | - |
| 1777934114 | 23.89° C | 23% | 1015.1 hPa | 0 mm | - | 125 W/m² | - |
| 1777933810 | 23.89° C | 24% | 1015.2 hPa | 0 mm | - | 115 W/m² | - |
| 1777933507 | 24.44° C | 23% | 1015.2 hPa | 0 mm | - | 139 W/m² | - |
| 1777933204 | 24.44° C | 22% | 1015 hPa | 0 mm | - | 160 W/m² | - |
| 1777932901 | 24.44° C | 22% | 1015.1 hPa | 0 mm | - | 181 W/m² | - |
| 1777932598 | 24.44° C | 22% | 1015.3 hPa | 0 mm | - | 146 W/m² | - |
| 1777932294 | 25° C | 22% | 1015.4 hPa | 0 mm | - | 154 W/m² | - |
| 1777931991 | 25° C | 22% | 1015.2 hPa | 0 mm | - | 194 W/m² | - |
| 1777931688 | 25.56° C | 22% | 1015.1 hPa | 0 mm | - | 293 W/m² | - |
| 1777931385 | 25.56° C | 23% | 1015.2 hPa | 0 mm | - | 348 W/m² | - |
| 1777931081 | 25.56° C | 23% | 1015.1 hPa | 0 mm | - | 355 W/m² | - |
| 1777930778 | 25° C | 24% | 1015 hPa | 0 mm | - | 322 W/m² | - |
| 1777930474 | 25° C | 23% | 1015.1 hPa | 0 mm | - | 330 W/m² | - |
| 1777930172 | 25° C | 23% | 1014.9 hPa | 0 mm | - | 378 W/m² | - |
| 1777929867 | 24.44° C | 24% | 1015.1 hPa | 0 mm | - | 270 W/m² | - |
| 1777929565 | 25° C | 25% | 1015 hPa | 0 mm | - | 171 W/m² | - |
| 1777929261 | 25° C | 25% | 1015.3 hPa | 0 mm | - | 194 W/m² | - |
| 1777928959 | 25° C | 25% | 1015.3 hPa | 0 mm | - | 206 W/m² | - |
| 1777928656 | 25° C | 25% | 1015.2 hPa | 0 mm | - | 183 W/m² | - |
| 1777928353 | 25° C | 24% | 1015.3 hPa | 0 mm | - | 229 W/m² | - |
| 1777928050 | 25° C | 25% | 1014.9 hPa | 0 mm | - | 260 W/m² | - |
| 1777927748 | 25.56° C | 24% | 1015.2 hPa | 0 mm | - | 207 W/m² | - |
| 1777927446 | 25° C | 23% | 1015.2 hPa | 0 mm | - | 250 W/m² | - |
| 1777927146 | 25.56° C | 22% | 1014.9 hPa | 0 mm | - | 283 W/m² | - |
* Rain latest hour (hover to see other rain measurements)
** Current wind speed in m/s (hover to see current wind gust speed)